KD4PYR Weather Reports


Display with metric or nautical units.
time (UTC)temp
F
wind
direction
speed
MPH
gust
MPH
rain 1hr
in
rain 24hr
in
rain mn
in
humidity
%
barometer
mb
20260901073823 74 182 1.0 3.0 0.00 0.00 0.00 79 1018.3
20260901072818 74 181 1.0 3.0 0.00 0.00 0.00 80 1018.2
20260901071835 74 181 0.0 2.0 0.00 0.00 0.00 79 1018.2
20260901070824 74 181 1.0 3.0 0.00 0.00 0.00 79 1018.2
20260901065827 75 181 0.0 2.0 0.00 0.00 0.00 79 1018.4
20260901064831 75 181 0.0 2.0 0.00 0.00 0.00 79 1018.4
20260901063822 74 181 1.0 2.0 0.00 0.00 0.00 79 1018.4
20260901062815 75 181 0.0 1.0 0.00 0.00 0.00 79 1018.6
20260901061832 75 181 0.0 3.0 0.00 0.00 0.00 79 1018.7
20260901060826 75 181 1.0 3.0 0.00 0.00 0.00 79 1018.7
20260901055829 75 181 1.0 5.0 0.00 0.00 0.00 79 1018.9
20260901054833 75 174 1.0 3.0 0.00 0.00 0.00 79 1019.0
20260901053824 75 175 2.0 4.0 0.00 0.00 0.00 79 1019.1
20260901052815 75 173 1.0 3.0 0.00 0.00 0.00 79 1019.3
20260901051855 75 173 1.0 3.0 0.00 0.00 0.00 80 1019.3
20260901050826 76 173 0.0 1.0 0.00 0.00 0.00 80 1019.4
20260901045829 76 174 0.0 2.0 0.00 0.00 0.00 79 1019.4
20260901044831 76 174 0.0 2.0 0.00 0.00 0.00 79 1019.3
20260901043822 76 174 0.0 1.0 0.00 0.00 0.00 79 1019.3
20260901042842 76 174 0.0 3.0 0.00 0.00 0.00 79 1019.4
20260901041837 76 174 0.0 2.0 0.00 0.00 0.00 79 1019.4
20260901040828 76 173 0.0 1.0 0.00 0.00 0.00 79 1019.4
20260901035833 76 174 0.0 1.0 0.00 0.00 0.00 79 1019.3
20260901034836 77 174 0.0 0.0 0.00 0.00 0.00 79 1019.5
20260901033829 77 174 0.0 0.0 0.00 0.00 0.00 79 1019.5
20260901032819 78 174 0.0 1.0 0.00 0.00 0.00 78 1019.6
20260901031855 78 173 0.0 1.0 0.00 0.00 0.00 78 1019.6
20260901030855 77 173 0.0 1.0 0.00 0.00 0.00 78 1019.6
20260901025817 77 173 0.0 1.0 0.00 0.00 0.00 78 1019.5
20260901024820 77 174 0.0 1.0 0.00 0.00 0.00 79 1019.5
20260901023816 77 174 0.0 0.0 0.00 0.00 0.00 79 1019.6
20260901022836 77 174 0.0 0.0 0.00 0.00 0.00 79 1019.6
20260901021833 78 173 0.0 0.0 0.00 0.00 0.00 79 1019.5
20260901020826 78 174 0.0 0.0 0.00 0.00 0.00 79 1019.4
20260901015831 78 174 0.0 0.0 0.00 0.00 0.00 79 1019.4
20260901014836 79 174 0.0 0.0 0.00 0.00 0.00 78 1019.3
20260901013829 79 173 0.0 0.0 0.00 0.00 0.00 78 1019.3
20260901012824 80 174 0.0 0.0 0.00 0.00 0.00 77 1019.2
20260901011815 80 174 0.0 0.0 0.00 0.00 0.00 77 1019.1
20260901010833 80 174 0.0 0.0 0.00 0.00 0.00 77 1018.9
20260901005837 81 174 0.0 0.0 0.00 0.00 0.00 76 1018.7
20260901004820 81 174 0.0 0.0 0.00 0.00 0.00 75 1018.6
20260901003838 82 174 0.0 0.0 0.00 0.00 0.00 74 1018.5
20260901002835 83 174 0.0 0.0 0.00 0.00 0.00 72 1018.5
20260901001826 83 173 0.0 1.0 0.00 0.00 0.00 71 1018.4
20260901000818 84 174 0.0 3.0 0.00 0.00 0.00 71 1018.3
20260831235820 84 174 0.0 3.0 0.00 0.00 0.00 70 1018.2
20260831234845 84 174 1.0 4.0 0.00 0.00 0.00 69 1018.1
20260831233842 85 174 1.0 4.0 0.00 0.00 0.00 68 1018.1
20260831232838 85 174 0.0 3.0 0.00 0.00 0.00 67 1018.1
20260831231833 86 207 1.0 3.0 0.00 0.00 0.00 65 1018.1
20260831230852 86 171 2.0 4.0 0.00 0.00 0.00 65 1018.2
20260831225815 87 171 1.0 6.0 0.00 0.00 0.00 64 1018.3
20260831224839 87 169 2.0 5.0 0.00 0.00 0.00 63 1018.4
20260831223831 88 196 3.0 8.0 0.00 0.00 0.00 62 1018.5
20260831222822 88 178 2.0 5.0 0.00 0.00 0.00 61 1018.6
20260831221815 88 254 3.0 6.0 0.00 0.00 0.00 62 1018.6
20260831220832 88 286 2.0 7.0 0.00 0.00 0.00 62 1018.7
20260831215816 89 175 3.0 5.0 0.00 0.00 0.00 61 1018.8
20260831214821 89 200 1.0 6.0 0.00 0.00 0.00 61 1018.8
20260831213839 89 182 3.0 9.0 0.00 0.00 0.00 61 1018.9
20260831212829 89 163 2.0 7.0 0.00 0.00 0.00 61 1019.0
20260831211820 89 153 3.0 7.0 0.00 0.00 0.00 58 1019.1
20260831210815 90 206 3.0 9.0 0.00 0.00 0.00 59 1019.1
20260831205818 90 157 3.0 7.0 0.00 0.00 0.00 59 1019.1
20260831204821 90 188 5.0 8.0 0.00 0.00 0.00 58 1019.2
20260831203841 90 115 4.0 7.0 0.00 0.00 0.00 59 1019.3
20260831202832 89 184 4.0 8.0 0.00 0.00 0.00 59 1019.4
20260831201824 90 182 3.0 7.0 0.00 0.00 0.00 57 1019.5
20260831200843 92 142 2.0 8.0 0.00 0.00 0.00 56 1019.5
20260831195824 92 245 2.0 5.0 0.00 0.00 0.00 58 1019.7
20260831194829 91 183 1.0 7.0 0.00 0.00 0.00 56 1019.9
20260831193820 91 213 3.0 9.0 0.00 0.00 0.00 57 1020.0
20260831192838 91 149 4.0 11.0 0.00 0.00 0.00 54 1020.1
20260831191830 91 188 3.0 7.0 0.00 0.00 0.00 57 1020.2
20260831190821 90 342 2.0 8.0 0.00 0.00 0.00 57 1020.3
20260831185854 90 167 3.0 7.0 0.00 0.00 0.00 59 1020.4
20260831184833 90 169 3.0 9.0 0.00 0.00 0.00 58 1020.5
20260831183825 89 296 1.0 8.0 0.00 0.00 0.00 58 1020.5
20260831182843 88 224 1.0 7.0 0.00 0.00 0.00 62 1020.6
20260831181845 88 157 2.0 8.0 0.00 0.00 0.00 61 1020.6
20260831180816 89 211 5.0 12.0 0.00 0.00 0.00 63 1020.7
20260831175819 90 163 5.0 9.0 0.00 0.00 0.00 62 1020.7
20260831174824 90 170 5.0 9.0 0.00 0.00 0.00 63 1020.9
20260831173817 89 166 4.0 10.0 0.00 0.00 0.00 63 1020.9
20260831172836 89 217 2.0 7.0 0.00 0.00 0.00 62 1021.0
20260831171829 89 152 3.0 8.0 0.00 0.00 0.00 63 1021.0
20260831170818 89 150 2.0 8.0 0.00 0.00 0.00 64 1021.0
20260831165843 88 287 1.0 7.0 0.00 0.00 0.00 66 1021.2
20260831164826 88 315 0.0 7.0 0.00 0.00 0.00 66 1021.1
20260831163818 88 161 3.0 8.0 0.00 0.00 0.00 65 1021.3
20260831162836 87 157 1.0 11.0 0.00 0.00 0.00 66 1021.3
20260831161833 86 102 1.0 7.0 0.00 0.00 0.00 68 1021.3
20260831160825 86 167 4.0 8.0 0.00 0.00 0.00 68 1021.2
20260831155850 86 302 3.0 9.0 0.00 0.00 0.00 70 1021.2
20260831154832 85 178 3.0 8.0 0.00 0.00 0.00 73 1021.2
20260831153824 83 292 1.0 8.0 0.00 0.00 0.00 74 1021.2
20260831152841 82 190 2.0 7.0 0.00 0.00 0.00 75 1021.3
20260831151831 82 159 3.0 8.0 0.00 0.00 0.00 75 1021.3
20260831150821 81 176 1.0 6.0 0.00 0.00 0.00 77 1021.2
20260831145823 80 171 4.0 9.0 0.00 0.00 0.00 78 1021.2
20260831144845 79 154 3.0 8.0 0.00 0.00 0.00 77 1021.1
20260831143816 78 179 0.0 4.0 0.00 0.00 0.00 78 1021.1
20260831142836 78 164 0.0 3.0 0.00 0.00 0.00 78 1021.1
20260831141830 77 165 0.0 5.0 0.00 0.00 0.00 78 1021.1
20260831140846 77 164 1.0 5.0 0.00 0.00 0.00 78 1021.1
20260831135829 76 163 1.0 5.0 0.00 0.00 0.00 79 1021.2
20260831131826 75 202 1.0 5.0 0.00 0.00 0.00 79 1021.0
20260831130819 75 174 2.0 5.0 0.00 0.00 0.00 79 1020.9
20260831125822 75 141 2.0 4.0 0.00 0.00 0.00 79 1020.9
20260831124824 75 173 1.0 4.0 0.00 0.00 0.00 79 1020.7
20260831123815 74 176 1.0 3.0 0.00 0.00 0.00 79 1020.6
20260831122831 74 192 1.0 4.0 0.00 0.00 0.00 79 1020.6
20260831121850 73 192 1.0 4.0 0.00 0.00 0.00 80 1020.7
20260831120818 72 195 1.0 2.0 0.00 0.00 0.00 80 1020.6
20260831115818 72 196 0.0 1.0 0.00 0.00 0.00 80 1020.6
20260831114821 72 196 0.0 1.0 0.00 0.00 0.00 80 1020.5
20260831113839 72 196 0.0 2.0 0.00 0.00 0.00 80 1020.3
20260831112836 72 196 0.0 1.0 0.00 0.00 0.00 80 1020.3
20260831111824 72 196 0.0 2.0 0.00 0.00 0.00 80 1020.2
20260831110815 72 196 0.0 2.0 0.00 0.00 0.00 80 1020.2
20260831105818 73 196 0.0 2.0 0.00 0.00 0.00 79 1020.1
20260831104841 73 196 0.0 1.0 0.00 0.00 0.00 79 1020.0
20260831103832 73 196 0.0 3.0 0.00 0.00 0.00 79 1019.9
20260831102822 73 196 0.0 3.0 0.00 0.00 0.00 79 1019.7
20260831101840 73 196 1.0 4.0 0.00 0.00 0.00 79 1019.7
20260831100830 73 196 1.0 2.0 0.00 0.00 0.00 79 1019.5
20260831095833 73 196 0.0 4.0 0.00 0.00 0.00 79 1019.5
20260831094838 73 196 1.0 4.0 0.00 0.00 0.00 78 1019.5
20260831093830 73 194 0.0 3.0 0.00 0.00 0.00 78 1019.5
20260831092823 73 194 0.0 0.0 0.00 0.00 0.00 79 1019.5
20260831091838 73 194 0.0 0.0 0.00 0.00 0.00 79 1019.6
20260831090829 74 194 0.0 1.0 0.00 0.00 0.00 78 1019.6
20260831085829 74 194 0.0 1.0 0.00 0.00 0.00 78 1019.5
20260831084829 74 194 0.0 1.0 0.00 0.00 0.00 78 1019.2
20260831083818 74 194 0.0 3.0 0.00 0.00 0.00 78 1019.1
20260831082858 74 194 1.0 3.0 0.00 0.00 0.00 78 1018.9
20260831081832 74 194 0.0 2.0 0.00 0.00 0.00 78 1019.0
20260831080823 74 194 2.0 4.0 0.00 0.00 0.00 78 1019.0
20260831075826 74 194 0.0 4.0 0.00 0.00 0.00 77 1018.9
20260831074829 74 160 1.0 4.0 0.00 0.00 0.00 77 1018.8